Regional Weather Roundup
Issued by NWS San Diego, CA

Home | Current Version | Previous Version | Text Only | Print | Product List | Glossary On
Versions: 1 2 3 4 5 6 7 8 9 10 11 12 13 14 15 16 17 18 19 20 21 22 23 24 25 26 27 28 29 30 31 32 33 34 35 36 37 38 39 40 41 42 43 44 45 46 47 48 49 50
000
ASUS46 KSGX 121303
RWRSGX

SAN DIEGO HOURLY WEATHER ROUNDUP
NATIONAL WEATHER SERVICE SAN DIEGO CA
600 AM PDT SAT JUL 12 2014

NOTE: "FAIR" INDICATES FEW OR NO CLOUDS BELOW 12,000 FEET WITH NO
SIGNIFICANT WEATHER AND/OR OBSTRUCTIONS TO VISIBILITY.

CAZ042-043-060-061-PZZ750-775-121400-

GREATER SAN DIEGO AREA

CITY           SKY/WX    TMP DP  RH WIND       PRES   REMARKS
LINDBERGH FLD  CLOUDY    70  60  70 NW7       30.00R
POINT LOMA       N/A     67  61  81 NW6         N/A
NATIONAL CITY    N/A     69  64  85 CALM      29.99R
CHULA VISTA      N/A     68  64  87 CALM      29.93R
IMPERIAL BEACH CLOUDY    69  62  78 NW5       29.99R
BROWN FIELD    CLOUDY    67  61  81 CALM      30.00R
MIRAMAR MCAS   MOCLDY    67  60  78 NW5       29.99S
MONTGOMERY FLD CLOUDY    67  61  81 CALM      30.00R

$$

NORTH SAN DIEGO COUNTY

CITY           SKY/WX    TMP DP  RH WIND       PRES   REMARKS
CAMP PENDLETON PTCLDY    59  56  89 CALM      29.99R FOG
OCEANSIDE AP   CLOUDY    64  61  90 CALM      29.97S
VISTA            N/A     66  62  86 CALM      29.96S
CARLSBAD       CLOUDY    68  62  81 CALM      29.98R
DEL MAR          N/A     68  63  85 CALM      30.01R
LA JOLLA SCRIP   N/A     67  64  88 SW2       29.96R
FALLBROOK        N/A     65  65 100 CALM      30.00R
ESCONDIDO        N/A     66  62  87 S2        30.00R
SAN MARCOS       N/A     66  61  85 CALM      29.96R
POWAY            N/A     63  60  88 CALM      29.99S
R. PENASQUITOS   N/A     66  63  89 CALM      29.99R

$$

EAST SAN DIEGO COUNTY

CITY           SKY/WX    TMP DP  RH WIND       PRES   REMARKS
RAMONA         FOG       58  58 100 CALM      30.01R VSB 1/4
SANTEE LAKES     N/A     63  61  92 CALM      30.00R
GILLESPIE FLD  CLOUDY    64  61  88 CALM      30.01R
LA MESA          N/A     66  63  91 CALM      29.93R
JAMUL            N/A     63  61  94 CALM      29.97R
DESCANSO N       N/A     54  47  78 E2        29.85R
MT. LAGUNA OBS   N/A     63  34  34 NW3       29.76R
CAMPO            N/A     51  48  89 NE6       30.02R

$$

ORANGE COUNTY AND THE LOS ANGELES BASIN

CITY           SKY/WX    TMP DP  RH WIND       PRES   REMARKS
JOHN WAYNE AP  PTCLDY    68  62  81 CALM      29.98R
LAGUNA BEACH     N/A     60  58  92 CALM      29.94R
LAKE FOREST FR   N/A     61  56  84 CALM      29.89R
SANTA ANA        N/A     65  61  87 CALM      29.94R
HUNTINGTON BCH   N/A     65  63  92 W1        30.00R
FULLERTON      CLEAR     66  61  84 CALM      29.98R
LONG BEACH     CLEAR     66  61  84 CALM      29.99R
L.A. AP        PTCLDY    66  61  84 NE3       29.99R
L.A. DOWNTOWN  CLEAR     66  60  81 CALM      29.98R

$$

THE INLAND EMPIRE

CITY           SKY/WX    TMP DP  RH WIND       PRES   REMARKS
CORONA         CLEAR     57  54  90 CALM      30.00R
CHINO          CLEAR     61  59  93 CALM      30.01R FOG
ONTARIO        PTCLDY    64  58  80 CALM      29.99S
RIVERSIDE AP   CLEAR     65  58  78 CALM      30.00R
RIV CYN CREST    N/A     64  63  97 CALM      29.97R
MORENO VALLEY    N/A     62  53  71 CALM      28.11R
HORSETHIEF CYN   N/A     61  51  70 SW3       29.99R
PERRIS           N/A     63  56  79 CALM        N/A
MENIFEE          N/A     64  60  87 CALM      30.06R
HEMET EAST       N/A     61  51  68 CALM      29.95S
FRENCH VALLEY  FAIR      61  55  82 CALM      30.01S
TEMECULA         N/A     62  60  93 CALM      29.97R

$$

SAN BERNARDINO AND RIVERSIDE COUNTY MOUNTAINS

CITY           SKY/WX    TMP DP  RH WIND       PRES   REMARKS
BIG BEAR AP    CLEAR     41  32  70 CALM      30.30R
BIG BEAR SHEA    N/A     40  31  67 CALM      30.05R
ANGELUS OAKS     N/A     57  39  50 MISG      29.85R
PINE COVE        N/A     62  38  41 CALM      29.92R

$$

SOUTHERN DESERT INCLUDING THE COACHELLA VALLEY

CITY           SKY/WX    TMP DP  RH WIND       PRES   REMARKS
PALM SPRINGS   CLEAR     82  54  37 W5        29.88R
THOUSAND PALMS   N/A     82  51  34 NW17      29.82R
PALM DESERT      N/A     78  60  54 CALM      30.86S
THERMAL        CLEAR     82  52  35 NW9       29.81R
BLYTHE         MOCLDY    79  49  34 N6        29.85R
IMPERIAL AP    MOCLDY    78  54  43 W8        29.83R
EL CENTRO NAS  PTCLDY    79  52  38 W8        29.83R
YUMA AZ        MOCLDY    81  52  36 W3        29.84R

$$

UPPER DESERT

CITY           SKY/WX    TMP DP  RH WIND       PRES   REMARKS
VICTORVILLE AP CLEAR     66  46  48 S7        30.06R
HESPERIA         N/A     64  46  51 W5        30.03R
APPLE VALLEY     N/A     58  49  70 CALM      30.12S
GRAY BUTTE AP  NOT AVBL
PALMDALE       CLEAR     67  47  48 S8        30.04R
LANCASTER      CLEAR     68  50  52 W6        30.03R
DAGGETT        CLEAR     73  45  36 W9        29.99R
29 PALMS N     PTCLDY    77  44  30 W6        30.05R
NEEDLES        CLEAR     83  44  25 NW7       29.89R

$$

REGIONAL REPORTS

CITY           SKY/WX    TMP DP  RH WIND       PRES   REMARKS
SANTA BARBARA  CLEAR     59  56  89 CALM      29.96R
SANDBERG       CLEAR     67  48  50 N18       30.15R
MT. WILSON       N/A     63  30  29 N3          N/A
LAS VEGAS NV   PTCLDY    77  38  24 S10       29.94R
PHOENIX AZ     MOCLDY    88  60  38 E8        29.88R
TIJUANA        CLOUDY    66  59  77 N7        30.02R
ENSENADA NW      N/A     65  32  28 NE1       29.96R

$$

OFFSHORE ISLANDS

CITY           SKY/WX    TMP DP  RH WIND       PRES   REMARKS
CATALINA ARPT  FOG       58  57  97 W3        30.02R VSB<1/4
SAN NICOLAS IS MOCLDY    62  58  86 W14       30.00R

$$

MARINE AND OFFSHORE BUOY REPORTS

STATION/POSITION SKY/WX   TEMP    WIND        PRES    SWELL
                          AIR SEA DIR/SP/G            HT/PER/DIR
                          (F)     (DEG/KT/KT) (MB)    (FT/S/D)
TANNER BANKS               62 63  320/ 16/ 21 1016.7R
S CLEMENTE BASIN           65 69  300/ 12/ 14 1015.6R   3/300/ 6
SO. S. ROSA ISLA           62 66  310/ 21/ 27 1015.0S   3/ 9
W. S. BARBARA CH           60 60  330/ 23/ 29 1014.5F
M. S. BARBARA CH           65 67   20/  8/ 10 1014.6
S. MONICA BASIN            65 71  230/  6/  8 1014.7S   3/260/ 7
S PEDRO CHANNEL               69                N/A
DANA POINT                    71                N/A     2/220/11
CMP PENDLETON NS              72                N/A     2/230/11
OCEANSIDE OFFSHR              71                N/A     2/210/11
TORREY PINES OTR              72                N/A     2/200/11
LA JOLLA 1                 69 70  360/  5/  8 1015.2R
MISSION BAY BUOY              73                N/A     2/220/11
SAN DIEGO BAY                 75              1015.7R
POINT LOMA SOUTH              71                N/A     2/230/11

$$



USA.gov is the U.S. government's official web portal to all federal, state and local government web resources and services.